星链-31438 (STARLINK-31438 )

导读 | 豆包AI

STARLINK-31438是美国SpaceX星链(Starlink)低轨互联网星座中的一颗卫星,于2024年3月16日发射入轨。作为星链组网卫星,它运行在近地轨道,依托相控阵天线、氩气推进器等技术,为全球提供低时延宽带互联网接入,尤其覆盖偏远地区,是SpaceX大规模卫星互联网布局的组成单元。

基本信息
目录编号:
59234
目录名称:
STARLINK-31438
国际标识:
2024-049D
轨道中心:
EARTH
卫星名称:
星链-31438
卫星全名:
星链-31438 (STARLINK-31438 )
卫星状态:
在轨 (已飞行775 天)
发射日期:
2024-03-16 UTC
国别 :
美国 (US)
星等 :
--
轨道信息
数据来源 国际轨道数据
星历时间: 2026-04-30T22:36:27+0800
9小时前
查看轨道信息
半长轴: 6861.432km
偏心率: 0.0000663
轨道倾角: 43.002°
近地点辐角 168.762°
升交点赤经 199.321°
平近点角 191.325°
近地点: 482.84km
远地点: 483.75km
周期: 94.272分钟
每日圈数: 15.274982
详细信息
固有亮度:
5
最大亮度:
0.3
卫星平台:
Starlink v2.0 mini
覆盖范围:
全球
运营商:
太空探索技术公司
运营商所在国:
美国
制造商(研发单位):
太空探索技术公司
制造商所在国:
美国
使用方式:
暂无
卫星简介
星链(Starlink)计划是由太空探索技术公司(SpaceX)提出的一个巨型低轨卫星互联网星座项目,计划在2019年至2024年间在太空搭建由约1.2万颗卫星组成的“星链”网络,其中1584颗将部署在地球上空550千米处的近地轨道,并从2020年开始工作。该卫星仍在工作。
2D轨道图
3D轨道图
轨道高度分析图
轨道倾角分析图
轨道综合分析图
查看轨道综合分析图